User: anonymous   Login
Location: Albany
(35.0000°S, 118.0000°E)
Time: 10:12:51
(UTC-04:00)
Language:

Cosmos 1933 - Orbit

View from above orbital plane
View from above orbital plane
View from above satellite
View from above satellite

Ground track
Ground track

The orbit data is extracted from the following two-line orbital elements,

1 18958U 88020A   17178.85547672 +.00000282 +00000-0 +18765-4 0  9990
2 18958 082.5307 093.5608 0010181 243.1947 116.8238 15.03245400571961
Epoch (UTC): 27 June 2017 20:31:53
Eccentricity: 0.0010181
inclination: 82.5307°
perigee height: 550 km
apogee height: 564 km
right ascension of ascending node: 93.5608°
argument of perigee: 243.1947°
revolutions per day: 15.03245400
mean anomaly at epoch: 116.8238°
orbit number at epoch: 57196

The dashed part of the orbit path shows where the satellite is in the earth's shadow,  

DLR